sat.trackr.live / text

‹ back to catalog

QIANFAN-29

NORAD 61562 · 2024-185L

PAYLOAD ACTIVE UNKNOWN

§ Identity

Operator
Country
PRC
Launch date
2024-10-15
Launch site
TAISC
Launch vehicle
Mass (kg)
RCS (m²)

External: N2YO · Heavens-Above · Gunter

§ Orbital elements

Epoch: 2026-05-25T02:49:01.385760Z

Period
106.58 min
Inclination
88.9812°
Eccentricity
0.0008211
Mean motion
13.51069821 rev/d
Perigee alt
1,062.2 km
Apogee alt
1,074.4 km
Semi-major
7,446.5 km
B*
1.1785e-4
RAAN
64.4111°
Arg perigee
306.5296°
Mean anomaly
53.5099°
Rev number
8,985

§ Raw data

QIANFAN-291 61562U 24185L   26145.11737715  .00000088  00000+0  11785-3 0  99902 61562  88.9812  64.4111 0008211 306.5296  53.5099 13.51069821 89855

JSON: /api/v1/satellites/61562 · /tle

For live sub-satellite position, see the globe view (requires WebGL).

§ Visibility from observer

Set your observer location to see the next 7 days of passes ≥ 10°. The values pass through the URL so the page stays shareable.

No JS? Fill the form by hand. The geolocation button needs JavaScript.